Location: Columbia
(38.9520°N, 92.3340°W)
Time: 20:05:53
(UTC-05:00)

Cosmos 1633 - Visible Passes

Search period start: 18 April 2015 00:00
Search period end: 28 April 2015 00:00
Orbit: 484 x 508 km, 82.5° (Epoch: 16 April)

Date Brightness Start Highest point End Pass type
(mag) Time Alt. Az. Time Alt. Az. Time Alt. Az.
25 Apr 5.9 23:45:36 10° N 23:45:45 11° N 23:45:45 11° N visible
26 Apr 5.7 23:24:21 10° N 23:24:42 12° N 23:24:42 12° N visible
27 Apr 5.5 23:03:10 10° NNE 23:03:39 13° NNE 23:03:39 13° NNE visible
